[[{"header":{"parameterUnit":"m.s-1","parameterCategory":1,"la1":30.2991,"la2":30.254,"lo1":-89.0895,"lo2":-89.0444,"dy":0.0017,"dx":0.0017,"nx":28,"ny":28,"refTime":"2024-08-11T09:00:00:Z","depth":0,"parameterNumber":2,"parameterNumberName":"U-component_of_WINDS"},"data":[0,0,0,0,0,0,0,0,0,0,0,0,0,0,0,0,0,0,0,0,0,0,0,0,0,0,0,0,0,0,0,0,0,0,0,0,0,0,0,0,0,0,0,0,0,0,0,0,0,0,0,0,0,0,0,0,0,0,0.6306,0.6307,0,0.6435,0.6436,0.6437,0.6506,0.6506,0.6506,0.6506,0.6642,0.6645,0.6649,0,0,0,0,0,0,0,0,0,0,0,0,0,0.6121,0.6124,0.6306,0.6307,0.6309,0.6434,0.6436,0.6438,0.6506,0.6506,0.6506,0.6506,0.6641,0.6645,0.6649,0,0,0,0,0,0,0,0,0,0,0,0,0,0.6221,0.6125,0.6305,0.6358,0.6364,0.6434,0.6436,0.6438,0.6506,0.6506,0.6506,0.6506,0.6639,0.6644,0.665,0.6679,0,0,0.6666,0.6668,0,0,0,0,0,0,0,0,0.6215,0.6227,0.6348,0.6354,0.6361,0.6454,0.6421,0.6519,0.6506,0.6452,0.6506,0.6506,0.6579,0.659,0.6614,0.6685,0.6691,0.6666,0.6669,0.6672,0.6673,0,0,0,0,0,0,0,0.6208,0.6222,0.6357,0.635,0.6358,0.6376,0.639,0.644,0.6513,0.6457,0.6462,0.6476,0.6583,0.6608,0.6617,0.6693,0.6666,0.6671,0.6674,0.6676,0.6794,0.6794,0,0,0,0,0,0,0.6192,0.6216,0.6353,0.6361,0.6287,0.6379,0.6395,0.6424,0.6513,0.6526,0.6476,0.6479,0.6599,0.6611,0.6622,0.6662,0.6672,0.6676,0.6679,0.6794,0.6794,0.6794,0,0,0,0,0,0,0.6188,0.6204,0.6347,0.629,0.6309,0.6382,0.6414,0.6427,0.6452,0.6527,0.6541,0.6488,0.66,0.6615,0.6664,0.6667,0.6679,0.6684,0.6794,0.6794,0.6794,0.6741,0,0,0,0,0,0,0.6182,0.6202,0.6213,0.6289,0.6312,0.6386,0.6414,0.6429,0.646,0.6466,0.6542,0.6555,0.6601,0.6655,0.6669,0.6675,0.6688,0.6794,0.6794,0.6794,0.6743,0.6739,0.6736,0,0,0,0,0,0.6175,0.6194,0.6213,0.6229,0.6327,0.6386,0.6399,0.645,0.646,0.6473,0.6521,0.6553,0.6665,0.666,0.6676,0.6683,0.6794,0.6794,0.6794,0.6744,0.674,0.6736,0,0,0,0,0,0,0.6117,0.6205,0.6227,0.627,0.632,0.6397,0.6414,0.6444,0.6492,0.6495,0.6558,0.6575,0.6618,0.6656,0.6649,0.6716,0.6733,0.6736,0.6689,0.6686,0.6682,0.6672,0.6692,0,0,0,0,0,0.6109,0.6148,0.6223,0.6254,0.6277,0.6341,0.6368,0.6403,0.6458,0.6479,0.6531,0.6584,0.6631,0.6661,0.6708,0.6748,0.6766,0.6761,0.6758,0.6755,0.6757,0.678,0.6779,0.6794,0.6794,0.6794,0,0,0.6093,0.6146,0.6167,0.6243,0.6286,0.6325,0.6358,0.6399,0.6429,0.6486,0.6535,0.6575,0.6637,0.6682,0.6704,0.6715,0.6756,0.6755,0.6752,0.6756,0.678,0.6779,0.6777,0.6794,0.6794,0.6794,0,0,0.6084,0.6128,0.6158,0.62,0.6263,0.6305,0.6312,0.6385,0.6413,0.6462,0.6506,0.6543,0.6623,0.6665,0.6697,0.6704,0.6735,0.6718,0.67,0.6722,0.6721,0.672,0.6722,0.6722,0.6719,0.6719,0.6719,0,0.6057,0.6117,0.617,0.6208,0.624,0.6292,0.6324,0.6362,0.6438,0.6459,0.647,0.657,0.6616,0.6671,0.6672,0.6696,0.6707,0.6709,0.6717,0.6716,0.6716,0.6719,0.6719,0.6717,0.6717,0.6717,0.6717,0,0.608,0.6121,0.6138,0.6208,0.6243,0.6277,0.6336,0.6365,0.6397,0.6438,0.6488,0.6545,0.6604,0.662,0.6652,0.6679,0.6683,0.6704,0.6723,0.6711,0.6715,0.6716,0.6713,0.6714,0.6715,0.6715,0,0,0.6038,0.6136,0.6142,0.6174,0.6247,0.6281,0.6318,0.6374,0.6397,0.6448,0.6481,0.6546,0.6566,0.6602,0.664,0.6659,0.6659,0.6678,0.6681,0.6672,0.6692,0.6675,0.6675,0.6681,0.6681,0.6681,0.6686,0,0.6039,0.6106,0.6155,0.6204,0.6242,0.6292,0.6324,0.6373,0.6412,0.6451,0.6496,0.6541,0.6563,0.6585,0.6607,0.6655,0.6664,0.6655,0.6712,0.6713,0.6694,0.6677,0.666,0.6662,0.6688,0.6688,0.6689,0,0.6049,0.6097,0.6149,0.6217,0.6235,0.6263,0.6318,0.6355,0.6412,0.6439,0.6479,0.6517,0.6559,0.6573,0.6631,0.6624,0.665,0.6677,0.6678,0.6685,0.67,0.6683,0.6664,0.6664,0.6691,0.6691,0.6691,0,0.6013,0.609,0.6131,0.6157,0.6238,0.6256,0.6291,0.6347,0.6378,0.6427,0.6448,0.6501,0.653,0.6571,0.6623,0.6629,0.6676,0.6695,0.67,0.6698,0.6707,0.6706,0.6691,0.6725,0.6725,0.6725,0.6724,0,0.6009,0.6038,0.6115,0.614,0.6175,0.6231,0.6264,0.6303,0.6353,0.6387,0.6434,0.6465,0.6532,0.6571,0.6612,0.6653,0.6667,0.669,0.6701,0.6686,0.6682,0.6703,0.6704,0.6725,0.6725,0.6725,0.6725,0,0.5973,0.6026,0.6074,0.6146,0.6165,0.6187,0.6249,0.6276,0.6318,0.636,0.6373,0.6439,0.6487,0.6543,0.6611,0.6638,0.6676,0.6692,0.6657,0.6663,0.6664,0.6663,0.6662,0.6664,0.6696,0.6696,0.6695,0,0.5967,0.5991,0.6065,0.609,0.6123,0.6164,0.6195,0.6252,0.6282,0.6348,0.6366,0.6418,0.6462,0.6538,0.6592,0.6644,0.6661,0.6657,0.6669,0.6653,0.666,0.6657,0.666,0.6653,0.6653,0.6652,0.6652,0,0.595,0.5974,0.6017,0.6068,0.6103,0.6147,0.6192,0.6211,0.6276,0.6308,0.6358,0.6392,0.646,0.6511,0.6569,0.6606,0.664,0.6647,0.6651,0.6636,0.6614,0.6625,0.6647,0.6647,0.6648,0.6648,0.6648,0.6648,0.5928,0.5951,0.6007,0.6053,0.6092,0.6134,0.6162,0.6206,0.6248,0.6307,0.6338,0.6386,0.6442,0.6523,0.6559,0.6598,0.661,0.6615,0.6617,0.6617,0.6612,0.6608,0.6609,0.661,0.661,0.661,0.661,0,0.5913,0.5951,0.5992,0.6053,0.6089,0.6117,0.6168,0.6197,0.6238,0.6287,0.6329,0.6386,0.6435,0.6492,0.6546,0.6566,0.6583,0.6578,0.6577,0.6585,0.66,0.6591,0.6563,0.6563,0.6563,0.6563,0.6563,0.6563,0.5909,0.5949,0.598,0.604,0.6079,0.6126,0.6153,0.6191,0.623,0.629,0.6331,0.6368,0.642,0.6477,0.6523,0.6539,0.6556,0.6547,0.6567,0.658,0.6584,0.6587,0.6579,0.655,0.655,0.6549,0.6549,0.6549]},{"header":{"parameterUnit":"m.s-1","parameterCategory":1,"la1":30.2991,"la2":30.254,"lo1":-89.0895,"lo2":-89.0444,"dy":0.0017,"dx":0.0017,"nx":28,"ny":28,"refTime":"2024-08-11T09:00:00:Z","depth":0,"parameterNumber":3,"parameterNumberName":"V-component_of_WINDS"},"data":[0,0,0,0,0,0,0,0,0,0,0,0,0,0,0,0,0,0,0,0,0,0,0,0,0,0,0,0,0,0,0,0,0,0,0,0,0,0,0,0,0,0,0,0,0,0,0,0,0,0,0,0,0,0,0,0,0,0,3.1249,3.1249,0,3.124,3.124,3.124,3.1199,3.1198,3.1197,3.1196,3.1185,3.1186,3.1186,0,0,0,0,0,0,0,0,0,0,0,0,0,3.1224,3.1225,3.1249,3.1249,3.1248,3.124,3.124,3.124,3.1199,3.1198,3.1197,3.1196,3.1185,3.1186,3.1186,0,0,0,0,0,0,0,0,0,0,0,0,0,3.1227,3.1225,3.1249,3.1227,3.1225,3.1241,3.124,3.124,3.1199,3.1198,3.1197,3.1195,3.1185,3.1186,3.1186,3.1221,0,0,3.1189,3.119,0,0,0,0,0,0,0,0,3.1227,3.1228,3.123,3.1229,3.1226,3.1219,3.1228,3.1234,3.12,3.1209,3.1196,3.1194,3.1197,3.1197,3.1199,3.1221,3.122,3.1189,3.119,3.119,3.1191,0,0,0,0,0,0,0,3.1227,3.1228,3.1245,3.123,3.1228,3.1216,3.1215,3.1228,3.1211,3.1208,3.1205,3.1205,3.1196,3.1198,3.1198,3.122,3.1189,3.119,3.1191,3.1191,3.1265,3.1266,0,0,0,0,0,0,3.123,3.1228,3.1246,3.1245,3.1223,3.1218,3.1217,3.1223,3.1211,3.1208,3.1206,3.1203,3.1197,3.1197,3.1198,3.1234,3.119,3.1191,3.1192,3.1263,3.1265,3.1267,0,0,0,0,0,0,3.123,3.1232,3.1246,3.1236,3.1237,3.122,3.1227,3.1224,3.1225,3.121,3.1206,3.1212,3.1196,3.1196,3.1215,3.1233,3.1192,3.1192,3.1262,3.1264,3.1266,3.1309,0,0,0,0,0,0,3.1229,3.1232,3.1247,3.1236,3.1237,3.1265,3.1229,3.1225,3.1227,3.1223,3.1214,3.1211,3.1195,3.1214,3.1216,3.1233,3.1193,3.126,3.1263,3.1265,3.1305,3.1312,3.1318,0,0,0,0,0,3.1229,3.1259,3.1248,3.125,3.1255,3.1266,3.1266,3.1248,3.1229,3.1242,3.1231,3.1211,3.1231,3.1216,3.1218,3.1236,3.1259,3.1262,3.1265,3.1303,3.1311,3.1317,0,0,0,0,0,0,3.1272,3.1258,3.1244,3.1273,3.1271,3.1259,3.1275,3.1258,3.126,3.1256,3.1233,3.1231,3.1251,3.1246,3.1229,3.1267,3.1241,3.1245,3.1269,3.1277,3.1283,3.1282,3.1194,0,0,0,0,0,3.1285,3.1296,3.1283,3.1309,3.1309,3.1292,3.1296,3.1282,3.1279,3.1277,3.1268,3.1264,3.1269,3.1273,3.1277,3.1305,3.13,3.1319,3.1325,3.133,3.1332,3.1342,3.1349,3.1277,3.1277,3.1277,0,0,3.1311,3.1305,3.1313,3.1317,3.1314,3.1324,3.1292,3.1304,3.131,3.1279,3.1295,3.1288,3.1282,3.1304,3.1313,3.13,3.1351,3.1334,3.1338,3.1337,3.1346,3.1353,3.1359,3.1279,3.1279,3.1279,0,0,3.1364,3.1362,3.1382,3.1379,3.1374,3.1362,3.1367,3.1357,3.1351,3.1367,3.1342,3.1349,3.136,3.1355,3.1354,3.1403,3.1382,3.1405,3.1435,3.1445,3.1451,3.1456,3.1469,3.1475,3.1408,3.1408,3.1408,0,3.1397,3.1412,3.1394,3.1407,3.1408,3.138,3.1398,3.1396,3.1393,3.1393,3.1379,3.1389,3.1383,3.1402,3.1413,3.1415,3.1417,3.1404,3.1452,3.1456,3.1461,3.1473,3.1479,3.1411,3.141,3.141,3.141,0,3.1451,3.1461,3.1478,3.1474,3.1478,3.1494,3.1476,3.1481,3.1466,3.1456,3.147,3.1462,3.1462,3.1466,3.1453,3.1482,3.1474,3.1456,3.1429,3.147,3.1481,3.1486,3.1414,3.1413,3.1412,3.1412,0,0,3.1529,3.1515,3.1521,3.1517,3.1509,3.1516,3.153,3.153,3.1533,3.1532,3.154,3.1548,3.1531,3.153,3.1516,3.1525,3.1559,3.1506,3.1505,3.1513,3.1586,3.1597,3.1603,3.1547,3.1548,3.1548,3.1585,0,3.1576,3.1598,3.1581,3.1606,3.1613,3.1586,3.1597,3.1592,3.1583,3.1586,3.1575,3.1579,3.1559,3.1557,3.1566,3.1553,3.1573,3.1551,3.1551,3.1551,3.155,3.1609,3.1622,3.1657,3.159,3.1591,3.1591,0,3.1634,3.1634,3.1659,3.1646,3.1648,3.1659,3.1656,3.1661,3.1654,3.1645,3.1644,3.1626,3.1635,3.1612,3.1622,3.1608,3.1607,3.1601,3.1602,3.1598,3.1572,3.1604,3.1668,3.1672,3.1599,3.1598,3.1598,0,3.1683,3.169,3.1704,3.1703,3.169,3.1697,3.1692,3.1683,3.1684,3.1681,3.168,3.168,3.1678,3.1677,3.1658,3.1643,3.167,3.1646,3.1661,3.1661,3.1665,3.1665,3.1726,3.1671,3.1671,3.1671,3.1671,0,3.1735,3.175,3.1726,3.1735,3.175,3.173,3.1745,3.1737,3.173,3.1734,3.1712,3.1717,3.1694,3.1696,3.1682,3.1691,3.1691,3.1683,3.1678,3.1683,3.1683,3.168,3.1676,3.1672,3.1672,3.1672,3.1671,0,3.1791,3.1776,3.179,3.1776,3.1773,3.1784,3.1771,3.1778,3.1766,3.1773,3.1773,3.1755,3.1755,3.1737,3.1735,3.1725,3.1739,3.1732,3.1741,3.1737,3.1753,3.175,3.1811,3.1817,3.1761,3.1762,3.1762,0,3.1823,3.1834,3.1821,3.1823,3.1819,3.1823,3.1822,3.1803,3.1803,3.1795,3.1801,3.1801,3.1798,3.18,3.1786,3.1783,3.1773,3.1795,3.1772,3.1776,3.1769,3.1767,3.1767,3.1798,3.1799,3.18,3.18,0,3.1881,3.1872,3.1873,3.1871,3.1872,3.1869,3.1865,3.1868,3.1846,3.1848,3.1848,3.1847,3.1843,3.1841,3.1835,3.1828,3.1809,3.1808,3.181,3.1814,3.1817,3.1812,3.175,3.1806,3.1805,3.1805,3.1804,3.1804,3.1923,3.193,3.1921,3.1923,3.1917,3.1914,3.1918,3.1907,3.1907,3.1903,3.1892,3.1893,3.1883,3.1873,3.1867,3.1867,3.1856,3.1861,3.1862,3.1862,3.1864,3.182,3.1867,3.1866,3.1866,3.1866,3.1866,0,3.1976,3.1969,3.197,3.1965,3.1965,3.1949,3.1943,3.1944,3.1946,3.1939,3.1937,3.1936,3.1934,3.1919,3.1914,3.1917,3.1908,3.1916,3.1914,3.1912,3.1876,3.1872,3.1923,3.1923,3.1923,3.1923,3.1923,3.1923,3.2003,3.2013,3.2003,3.2009,3.2002,3.2004,3.2001,3.1997,3.199,3.1991,3.1989,3.1979,3.1968,3.1962,3.1959,3.1954,3.1952,3.1962,3.1955,3.192,3.1915,3.1909,3.1906,3.1963,3.1963,3.199,3.1991,3.1991]}]]